Regional Weather Roundup
Issued by NWS Columbia, SC

Home | Current Version | Previous Version | Text Only | Print | Product List | Glossary On
Versions: 1 2 3 4 5 6 7 8 9 10 11 12 13 14 15 16 17 18 19 20 21 22 23 24 25 26 27 28 29 30 31 32 33 34 35 36 37 38 39 40 41 42 43 44 45 46 47 48 49 50
000
ASUS42 KCAE 010910
RWRCAE
REGIONAL WEATHER ROUNDUP
NATIONAL WEATHER SERVICE COLUMBIA SC
400 AM EST SUN MAR 01 2015

NOTE: "FAIR" INDICATES FEW OR NO CLOUDS BELOW 12,000 FEET WITH NO
SIGNIFICANT WEATHER AND/OR OBSTRUCTIONS TO VISIBILITY.

NOT ALL STATIONS ARE QUALITY CONTROLLED BY THE NATIONAL
WEATHER SERVICE. USE DATA WITH CAUTION...ESPECIALLY
DEWPOINT OBSERVATIONS.

SCZ001>056-GAZ040-063>065-077-011000-
...UPSTATE SOUTH CAROLINA...

CITY           SKY/WX    TMP DP  RH WIND       PRES   REMARKS
ANDERSON       CLOUDY    34  30  85 NE9       30.55F WCI  27
LIBERTY        MIX PCPN  34  32  92 MISG      30.54F
SPARTANBURG    MIX PCPN  36  30  80 N5        30.57R WCI  32
CLEMSON        LGT RAIN  36  29  75 NE7       30.56F WCI  30
GREENVILLE     LGT RAIN  33  28  81 NE6       30.56F WCI  28
GREENWOOD      LGT RAIN  33  30  88 NE9       30.57F FOG     WCI  25
GREER          RAIN      33  28  81 N6        30.55F WCI  28
ROCK HILL      MIX PCPN  32  26  78 NE6       30.58F WCI  26
CHESTER        RAIN      34  30  86 NE9       30.56F WCI  26
LAURENS        MIX PCPN  32  32 100 NE8       30.56S WCI  25


...CENTRAL SOUTH CAROLINA...

CITY           SKY/WX    TMP DP  RH WIND       PRES   REMARKS
COLUMBIA APT   LGT RAIN  36  31  82 NE10      30.54F WCI  28
COLUMBIA OWENS LGT RAIN  36  29  75 NE3       30.55F
DARLINGTON     CLOUDY    36  27  69 N10       30.57F WCI  28
FLORENCE       CLOUDY    35  30  82 N10       30.54F WCI  27
MCENTIRE ANGB  LGT RAIN  36  32  87 NE6       30.53F WCI  31
ORANGEBURG     LGT RAIN  38  29  70 NE12      30.51F WCI  30
SUMTER SHAW    LGT RAIN  35  29  78 N10       30.52F WCI  28
NEWBERRY       LGT RAIN  32  30  93 N6        30.59S WCI  26
AIKEN          LGT RAIN  36  36 100 N7        30.54F WCI  30
BARNWELL       MIX PCPN  37  36  93 N8        30.51S WCI  31
MANNING        LGT RAIN  37  32  81 NE5       30.52F WCI  34
CAMDEN         LGT RAIN  34  28  80 N10       30.56F WCI  26
LANCASTER      LGT RAIN  32  30  93 CALM      30.58F
WINNSBORO      MIX PCPN  32  32 100 N7        30.54F WCI  26


...EASTERN AND COASTAL SOUTH CAROLINA...

CITY           SKY/WX    TMP DP  RH WIND       PRES   REMARKS
MYRTLE BEACH   CLOUDY    39  27  60 N9        30.54F WCI  33
N MYRTLE BCH   CLOUDY    39  29  67 NE9       30.52F WCI  33
CONWAY         CLOUDY    37  32  81 N3        30.53F
MARION         DRIZZLE   36  32  87 CALM      30.55F
HARTSVILLE     CLOUDY    34  30  86 N7        30.56S WCI  28
FLORENCE       CLOUDY    35  30  82 N10       30.54F WCI  27
DARLINGTON     CLOUDY    36  27  69 N10       30.57F WCI  28
CHARLESTON APT LGT RAIN  40  35  83 NE9       30.49F WCI  34
MOUNT PLEASANT CLOUDY    39  37  93 N6        30.48F WCI  35
WALTERBORO     CLOUDY    41  39  93 NE5       30.50S
BEAUFORT       CLOUDY    41  38  89 NE10      30.47F


...EASTERN GEORGIA...

CITY           SKY/WX    TMP DP  RH WIND       PRES   REMARKS
AUGUSTA BUSH F LGT RAIN  38  37  97 N6        30.53S FOG     WCI  33
AUGUSTA DANIEL RAIN      39  36  89 N10       30.51F FOG     WCI  32
THOMSON        CLOUDY    38  38 100 N10       30.56F WCI  30
WASHINGTON     RAIN      37  37 100 NE8       30.53F WCI  31
CLAXTON        CLOUDY    41  41 100 N3        30.48S
SYLVANIA       CLOUDY    40  40 100 NE9       30.49F FOG     WCI  33
STATESBORO     DRIZZLE   40  40 100 N6        30.48S
SAVANNAH       CLOUDY    42  38  85 NE9       30.46F


...SOUTHERN NORTH CAROLINA...

CITY           SKY/WX    TMP DP  RH WIND       PRES   REMARKS
CHARLOTTE      CLOUDY    32  23  69 NW3       30.59F
MONROE         CLOUDY    32  23  69 NE10      30.54F WCI  24
WADESBORO      LGT RAIN  33  25  71 NW3       30.60S
ROCKINGHAM     MIX PCPN  32  28  83 N5        30.57F WCI  27
RUTHERFORDTON  CLOUDY    32  29  89 CALM      30.57F
ASHEVILLE      CLOUDY    32  23  69 CALM      30.51F

$$


USA.gov is the U.S. government's official web portal to all federal, state and local government web resources and services.